Lakeview AWS, OR

1:21 AM PST on December 12, 2017 (GMT -0800)
Lake County

Weather History for KLKV - February, 2013

Change the Weather History Date:

Wednesday, February 20, 2013

  Actual Average Record
Temperature  
Mean Temperature 30 °F -  
Max Temperature 35 °F 43 °F 59 °F (1978)
Min Temperature 23 °F 24 °F 0 °F (1933)
Degree Days  
Heating Degree Days 36    
Moisture  
Dew Point 21 °F    
Average Humidity 74    
Maximum Humidity 93    
Minimum Humidity 48    
Precipitation  
Precipitation 0.00 in - - ()
Sea Level Pressure  
Sea Level Pressure 29.91 in    
Wind  
Wind Speed 10 mph (NE)    
Max Wind Speed 16 mph    
Max Gust Speed 18 mph    
Visibility 10 miles    
Events      
Averages and records for this station are not official NWS values.
T = Trace of Precipitation, MM = Missing Value Source: NWS Daily Summary

Daily Weather History Graph

Daily Weather History Graph

Search for Another Location

Airport or City:

Trip Planner

Search our weather history database for the weather conditions in past years. The results will help you decide how hot, cold, wet, or windy it might be!

Date:

Astronomy

Feb. 20, 2013 Rise Set
Actual Time 6:50 AM PST 5:41 PM PST
Civil Twilight 6:21 AM PST 6:09 PM PST
Nautical Twilight 5:49 AM PST 6:42 PM PST
Astronomical Twilight 5:16 AM PST 7:14 PM PST
Moon 1:03 PM PST (2/20) 3:17 AM PST (2/20)
Length of Visible Light 11h 47m
Length of Day
10h 50m
Waxing Gibbous, 77% of the Moon is Illuminated
Feb 20
Waxing Gibbous
Feb 25
Full
Mar 4
Last Quarter
Mar 11
New
Mar 19
First Quarter

Hourly Weather History & Observations

Time (PST) Temp. Windchill Dew Point Humidity Pressure Visibility Wind Dir Wind Speed Gust Speed Precip Events Conditions
12:15 AM 26.6 °F 15.7 °F 23.0 °F 86% 29.79 in 10.0 mi North 12.7 mph - N/A   Clear
12:35 AM 26.6 °F 15.7 °F 23.0 °F 86% 29.80 in 10.0 mi North 12.7 mph - N/A   Clear
12:55 AM 26.6 °F 15.7 °F 23.0 °F 86% 29.80 in 10.0 mi North 12.7 mph - N/A   Scattered Clouds
1:15 AM 24.8 °F 14.0 °F 21.2 °F 86% 29.81 in 10.0 mi North 11.5 mph 17.3 mph N/A   Mostly Cloudy
1:35 AM 26.6 °F 16.2 °F 23.0 °F 86% 29.82 in 10.0 mi North 11.5 mph - N/A   Mostly Cloudy
1:55 AM 26.6 °F 16.2 °F 23.0 °F 86% 29.83 in 10.0 mi North 11.5 mph 18.4 mph N/A   Overcast
2:15 AM 26.6 °F 15.7 °F 23.0 °F 86% 29.84 in 10.0 mi North 12.7 mph - N/A   Overcast
2:35 AM 26.6 °F 15.2 °F 23.0 °F 86% 29.84 in 10.0 mi North 13.8 mph - N/A   Overcast
2:55 AM 26.6 °F 15.2 °F 23.0 °F 86% 29.85 in 10.0 mi North 13.8 mph - N/A   Overcast
3:15 AM 26.6 °F 16.2 °F 23.0 °F 86% 29.85 in 10.0 mi NNE 11.5 mph 17.3 mph N/A   Overcast
3:35 AM 26.6 °F 16.8 °F 23.0 °F 86% 29.84 in 10.0 mi North 10.4 mph - N/A   Overcast
4:15 AM 26.6 °F 15.7 °F 21.2 °F 80% 29.85 in 10.0 mi North 12.7 mph - N/A   Overcast
4:35 AM 24.8 °F 13.4 °F 21.2 °F 86% 29.85 in 10.0 mi North 12.7 mph 16.1 mph N/A   Overcast
4:55 AM 24.8 °F 15.3 °F 21.2 °F 86% 29.86 in 10.0 mi North 9.2 mph - N/A   Overcast
5:15 AM 26.6 °F 19.1 °F 21.2 °F 80% 29.88 in 10.0 mi North 6.9 mph - N/A   Overcast
5:35 AM 26.6 °F 16.8 °F 21.2 °F 80% 29.88 in 10.0 mi North 10.4 mph - N/A   Overcast
5:55 AM 26.6 °F 16.2 °F 21.2 °F 80% 29.90 in 10.0 mi North 11.5 mph - N/A   Overcast
6:15 AM 26.6 °F 16.2 °F 19.4 °F 74% 29.91 in 10.0 mi North 11.5 mph - N/A   Overcast
6:35 AM 26.6 °F 15.7 °F 21.2 °F 80% 29.91 in 10.0 mi North 12.7 mph - N/A   Overcast
6:55 AM 26.6 °F 16.2 °F 21.2 °F 80% 29.92 in 10.0 mi North 11.5 mph - N/A   Overcast
7:15 AM 26.6 °F 16.2 °F 21.2 °F 80% 29.92 in 10.0 mi North 11.5 mph - N/A   Overcast
7:35 AM 26.6 °F 15.7 °F 19.4 °F 74% 29.92 in 10.0 mi North 12.7 mph - N/A   Mostly Cloudy
7:55 AM 26.6 °F 14.3 °F 21.2 °F 80% 29.93 in 10.0 mi North 16.1 mph - N/A   Partly Cloudy
8:15 AM 28.4 °F 17.0 °F 21.2 °F 74% 29.94 in 10.0 mi North 15.0 mph - N/A   Scattered Clouds
8:35 AM 28.4 °F 17.0 °F 21.2 °F 74% 29.94 in 10.0 mi North 15.0 mph - N/A   Mostly Cloudy
8:55 AM 28.4 °F 18.5 °F 21.2 °F 74% 29.95 in 10.0 mi North 11.5 mph - N/A   Overcast
9:15 AM 28.4 °F 18.0 °F 19.4 °F 69% 29.95 in 10.0 mi North 12.7 mph 17.3 mph N/A   Scattered Clouds
9:35 AM 28.4 °F 18.5 °F 21.2 °F 74% 29.95 in 10.0 mi North 11.5 mph 17.3 mph N/A   Scattered Clouds
9:55 AM 28.4 °F 18.5 °F 19.4 °F 69% 29.95 in 10.0 mi North 11.5 mph - N/A   Scattered Clouds
10:15 AM 30.2 °F 20.2 °F 19.4 °F 64% 29.96 in 10.0 mi North 12.7 mph - N/A   Mostly Cloudy
10:35 AM 28.4 °F 19.7 °F 17.6 °F 64% 29.96 in 10.0 mi NNE 9.2 mph 17.3 mph N/A   Overcast
10:55 AM 30.2 °F 20.8 °F 19.4 °F 64% 29.97 in 10.0 mi NNE 11.5 mph - N/A   Mostly Cloudy
11:15 AM 30.2 °F 23.4 °F 19.4 °F 64% 29.96 in 10.0 mi NE 6.9 mph - N/A   Partly Cloudy
11:35 AM 32.0 °F 23.0 °F 19.4 °F 60% 29.96 in 10.0 mi NNE 11.5 mph - N/A   Clear
11:55 AM 32.0 °F 24.2 °F 19.4 °F 60% 29.96 in 10.0 mi NE 9.2 mph - N/A   Clear
12:15 PM 32.0 °F 24.8 °F 19.4 °F 60% 29.96 in 10.0 mi NNE 8.1 mph - N/A   Clear
12:35 PM 33.8 °F 28.6 °F 17.6 °F 52% 29.95 in 10.0 mi NNE 5.8 mph - N/A   Clear
12:55 PM 32.0 °F - 17.6 °F 55% 29.93 in 10.0 mi Calm Calm - N/A   Clear
1:15 PM 33.8 °F 27.7 °F 17.6 °F 52% 29.93 in 10.0 mi SSW 6.9 mph - N/A   Clear
1:35 PM 35.6 °F 29.9 °F 17.6 °F 48% 29.93 in 10.0 mi South 6.9 mph - N/A   Clear
1:55 PM 35.6 °F 29.2 °F 17.6 °F 48% 29.93 in 10.0 mi SSW 8.1 mph - N/A   Clear
2:15 PM 33.8 °F 28.6 °F 17.6 °F 52% 29.94 in 10.0 mi South 5.8 mph - N/A   Clear
2:35 PM 33.8 °F 28.6 °F 17.6 °F 52% 29.93 in 10.0 mi SE 5.8 mph - N/A   Clear
2:55 PM 33.8 °F 28.6 °F 19.4 °F 56% 29.93 in 10.0 mi SE 5.8 mph - N/A   Clear
3:15 PM 33.8 °F 27.0 °F 21.2 °F 60% 29.92 in 10.0 mi SE 8.1 mph - N/A   Clear
3:35 PM 32.0 °F 24.8 °F 19.4 °F 60% 29.92 in 10.0 mi SSE 8.1 mph - N/A   Scattered Clouds
3:55 PM 33.8 °F 25.8 °F 19.4 °F 56% 29.92 in 10.0 mi South 10.4 mph - N/A   Scattered Clouds
4:15 PM 30.2 °F 21.9 °F 21.2 °F 69% 29.92 in 10.0 mi South 9.2 mph - N/A   Scattered Clouds
4:35 PM 30.2 °F 21.9 °F 21.2 °F 69% 29.91 in 10.0 mi South 9.2 mph - N/A   Overcast
4:55 PM 30.2 °F 22.6 °F 19.4 °F 64% 29.92 in 10.0 mi South 8.1 mph - N/A   Overcast
5:15 PM 28.4 °F 20.4 °F 19.4 °F 69% 29.92 in 10.0 mi South 8.1 mph - N/A   Overcast
5:35 PM 26.6 °F 19.1 °F 19.4 °F 74% 29.92 in 10.0 mi South 6.9 mph - N/A   Overcast
5:55 PM 26.6 °F 20.0 °F 19.4 °F 74% 29.93 in 10.0 mi SSE 5.8 mph - N/A   Overcast
6:15 PM 26.6 °F - 19.4 °F 74% 29.92 in 10.0 mi Calm Calm - N/A   Mostly Cloudy
6:35 PM 26.6 °F 18.2 °F 21.2 °F 80% 29.92 in 10.0 mi SSE 8.1 mph - N/A   Mostly Cloudy
6:55 PM 26.6 °F 17.5 °F 21.2 °F 80% 29.92 in 10.0 mi SSE 9.2 mph - N/A   Scattered Clouds
7:15 PM 26.6 °F 18.2 °F 21.2 °F 80% 29.92 in 10.0 mi SSE 8.1 mph - N/A   Scattered Clouds
7:35 PM 26.6 °F 18.2 °F 21.2 °F 80% 29.92 in 10.0 mi SSE 8.1 mph - N/A   Mostly Cloudy
7:55 PM 26.6 °F 17.5 °F 23.0 °F 86% 29.92 in 10.0 mi SSE 9.2 mph - N/A   Overcast
8:15 PM 26.6 °F 18.2 °F 23.0 °F 86% 29.93 in 10.0 mi SSE 8.1 mph - N/A   Overcast
8:35 PM 26.6 °F 19.1 °F 23.0 °F 86% 29.93 in 10.0 mi SSE 6.9 mph - N/A   Overcast
8:55 PM 26.6 °F 18.2 °F 23.0 °F 86% 29.94 in 10.0 mi SSE 8.1 mph - N/A   Overcast
9:15 PM 28.4 °F 19.7 °F 23.0 °F 80% 29.93 in 10.0 mi SSE 9.2 mph - N/A   Overcast
9:35 PM 28.4 °F 22.2 °F 21.2 °F 74% 29.94 in 10.0 mi SSE 5.8 mph - N/A   Overcast
9:55 PM 26.6 °F 20.0 °F 23.0 °F 86% 29.94 in 10.0 mi SSE 5.8 mph - N/A   Overcast
10:15 PM 26.6 °F 19.1 °F 21.2 °F 80% 29.94 in 10.0 mi South 6.9 mph - N/A   Overcast
10:35 PM 26.6 °F 21.2 °F 21.2 °F 80% 29.94 in 10.0 mi South 4.6 mph - N/A   Overcast
10:55 PM 26.6 °F - 21.2 °F 80% 29.95 in 10.0 mi Calm Calm - N/A   Mostly Cloudy
11:15 PM 24.8 °F - 21.2 °F 86% 29.95 in 10.0 mi Calm Calm - N/A   Mostly Cloudy
11:35 PM 24.8 °F 19.1 °F 21.2 °F 86% 29.94 in 10.0 mi WNW 4.6 mph - N/A   Scattered Clouds
11:55 PM 23.0 °F 15.8 °F 21.2 °F 93% 29.95 in 10.0 mi NNW 5.8 mph - N/A   Scattered Clouds